スミルノワ-チェルヌイフ彗星

74P/Smirnova-Chernykh (1992)

English version
Home page
Total 6,336 html files since Dec. 4, 1995
Updated on October 19, 1997

---------------------------------------------------------------------

・ プロフィール

・ 軌道要素

   The following improved orbital elements,  by Kenji Muraoka, are 
  from 184 observations 1978 July 11 to 1996 July 24, perturbations 
  by 9 Planets, Moon and 5 minor planets were taken into account. 
   The mean residual is +/- 0.90 arc seconds.

      Epoch  =  1992 Aug.  6.0  TT       JDT = 2448840.5
          T  =  1992 Aug.  5.92580       +/- 0.00089 (m.e.) TT
       Peri. =   88.99539                +/- 0.00023
       Node  =   77.48067                +/- 0.00022   (2000.0)
       Incl. =    6.62918                +/- 0.00002
          q  =    3.5721337              +/- 0.0000009 AU
          e  =    0.1473146              +/- 0.0000002
          a  =    4.1892751              +/- 0.0000004 AU
          n  =    0.11494650             +/- 0.00000002
          P  =    8.574                  +/- 0.0000012  years

・ 星図

・ 1994年 1月 8日〜1998年11月 3日

・ 光度変化

        m1 = 8.5 + 5 logΔ + 10.0 log r

---------------------------------------------------------------------

軌道要素は村岡健治氏の計算によるものです。
星図は StellaNavigator Ver.2.0 for Windows (アストロアーツ 編著 / アスキー出版局刊) で作成したものです。
光度グラフはComet for Windowsで作成したものです。

---------------------------------------------------------------------

Copyright(C) 1995-2008 Seiichi Yoshida (comet@aerith.net). All rights reserved.